Location: Lafig�re
(44.4503°N, 4.0357°E)
Time: 15:44:52
(UTC+00:00)

Transit 2A Rocket - Pass Details

Date: 29 January 2021
Orbit: 594 x 908 km, 66.7° (Epoch: 06 March)

Event Time Altitude Azimuth Distance (km) Brightness Sun altitude
Rises 17:46:24 0° 338° (NNW) 2,935 8.1 -10.5°
Reaches altitude 10° 17:49:30 10° 359° (N) 1,983 7.0 -11.0°
Maximum altitude 17:52:20 16° 39° (NE) 1,572 6.2 -11.5°
Enters shadow 17:53:24 15° 57° (ENE) 1,625 6.1 -11.7°
Drops below altitude 10° 17:55:06 10° 80° (E) 1,934 - -12.0°
Sets 17:58:04 0° 102° (ESE) 2,828 - -12.5°
